Regional Weather Roundup
Issued by NWS Sterling, VA

Home | Current Version | Previous Version | Text Only | Print | Product List | Glossary On
Versions: 1 2 3 4 5 6 7 8 9 10 11 12 13 14 15 16 17 18 19 20 21 22 23 24 25 26 27
000
ASUS41 KLWX 282211
RWRLWX

REGIONAL WEATHER ROUNDUP
NATIONAL WEATHER SERVICE BALTIMORE MD/WASHINGTON DC
600 PM EDT WED JUN 28 2017

Note: "FAIR" indicates few or no clouds below 12,000 feet
with no significant weather and/or obstructions to visibility.
 TC=TEMPERATURE CELSIUS

 * =Non NWS site. Station does not report precipitation (e.g. rain,
    snow, etc.), thunder, or fog.

DCZ001-MDZ009-015-VAZ040>042-051-053>054-282300-
WASHINGTON METRO

CITY           SKY/WX    TMP DP  RH WIND       PRES   REMARKS
WASHINGTON NAT PTSUNNY   81  51  35 S7G20     30.14F
DULLES         MOSUNNY   78  49  35 S7        30.14F
ANDREWS AFB    SUNNY     80  48  32 CALM      30.13F
FT BELVOIR     SUNNY     80  50  35 S7        30.14F
QUANTICO       PTSUNNY   80  55  42 S12       30.15F
COLLEGE PARK*  SUNNY     80  46  30 CALM      30.13F
LEESBURG*      SUNNY     81  54  39 S6        30.15F
MANASSAS*      SUNNY     80  52  37 SW5       30.14F
GAITHERSBURG*  CLOUDY    78  50  37 SW3       30.16F

$$

MDZ006>007-011-014-282300-
BALTIMORE METRO

CITY           SKY/WX    TMP DP  RH WIND       PRES   REMARKS
BWI AIRPORT    PTSUNNY   80  46  30 W5        30.13F
MD SCIENCE CTR   N/A     81  45  28 MISG      30.14S
MARTIN STATE   SUNNY     79  54  41 SE10      30.15F
ANNAPOLIS      SUNNY     74  53  48 S9        30.15F
FORT MEADE*    SUNNY     75  50  41 CALM      30.16F

$$

MDZ012-015-019>023-282300-
MARYLAND EASTERN SHORE

CITY           SKY/WX    TMP DP  RH WIND       PRES   REMARKS
OCEAN CITY     MOSUNNY   72  59  63 VRB6      30.19S
SALISBURY      SUNNY     78  44  29 W3        30.16F
BAY BRIDGE AP* SUNNY     81  48  32 SE9       30.15F
CAMBRIDGE*     SUNNY     77  52  41 VRB6G12   30.16F
EASTON*        SUNNY     81  46  30 CALM      30.19

$$

MDZ017>025-282300-
SOUTHERN MARYLAND

CITY           SKY/WX    TMP DP  RH WIND       PRES   REMARKS
PATUXENT RIVER PTSUNNY   77  54  44 SE8       30.16F
ST INIGOES     SUNNY     76  54  46 S9        30.16F
LEONARDTOWN*   SUNNY     77  50  38 SW6       30.18S

$$

MDZ003>005-282300-
NORTH CENTRAL MARYLAND

CITY           SKY/WX    TMP DP  RH WIND       PRES   REMARKS
FREDERICK*     SUNNY     79  43  27 W7        30.17F
HAGERSTOWN APT CLOUDY    78  44  29 SW7       30.13F
WESTMINSTER*   MOSUNNY   81  46  30 SW7       30.15S

$$

MDZ501>502-282300-
WESTERN MARYLAND

CITY           SKY/WX    TMP DP  RH WIND       PRES   REMARKS
OAKLAND*       CLOUDY    64  46  52 S5        30.07F
CUMBERLAND*    MOSUNNY   79  50  36 SE7       30.15F

$$

VAZ025>031-282300-
SHENANDOAH VALLEY

CITY           SKY/WX    TMP DP  RH WIND       PRES   REMARKS
WINCHESTER*    MOSUNNY   77  50  38 SE7       30.13F
FRONT ROYAL*   CLOUDY    79  50  36 CALM      30.13F
LURAY*         CLOUDY    79  50  36 S3        30.14F
NEW MARKET*    CLOUDY    77  49  37 S8        30.13F
STAUNTON*      CLOUDY    77  50  39 SW10      30.18F
WAYNESBORO*    SUNNY     75  55  49 SE5       30.17F

$$

WVZ021-048>050-054>055-282300-
EASTERN WEST VIRGINIA PANHANDLE

CITY           SKY/WX    TMP DP  RH WIND       PRES   REMARKS
MARTINSBURG    CLOUDY    77  46  33 S5        30.13F
PETERSBURG*    CLOUDY    82  48  30 W5        30.12F

$$

VAZ036>039-050-282300-
CENTRAL FOOTHILLS

CITY           SKY/WX    TMP DP  RH WIND       PRES   REMARKS
CHARLOTTESVILL CLOUDY    80  53  39 SW12      30.14F
CULPEPER*      SUNNY     80  52  38 S8        30.15F
ORANGE*        CLOUDY    79  50  36 S5        30.15F
GORDONSVILLE*  CLOUDY    81  51  35 SW7       30.14F
WARRENTON*     SUNNY     81  44  27 CALM      30.14F

$$

VAZ055>057-282300-
NORTH AND CENTRAL PIEDMONT

CITY           SKY/WX    TMP DP  RH WIND       PRES   REMARKS
FREDERICKSBRG* MOSUNNY   81  52  37 S7        30.14F
STAFFORD*      SUNNY     79  49  34 CALM      30.19F

$$

NCZ024-NYZ072-PAZ021-071-VAZ022-071-282300-
OTHER REGIONAL OBSERVATIONS

CITY           SKY/WX    TMP DP  RH WIND       PRES   REMARKS
NEW YORK CITY  MOSUNNY   77  48  35 VRB5      30.11S
PHILADELPHIA   PTSUNNY   79  47  32 SW6       30.12F
PITTSBURGH     CLOUDY    74  51  44 SW9       30.11F
ROANOKE        CLOUDY    79  55  43 SE13      30.17F
RICHMOND       PTSUNNY   79  52  38 S8        30.16S
RALEIGH        MOSUNNY   82  50  32 E6        30.17S

$$

ANZ530>537-282300-
MARINE OBSERVATIONS

STATION/POSITION TIME  TEMP    WIND        PRES
                       AIR SEA DIR/SP/G
                 (UTC) (F)     (DEG/KT/KT) (MB)
THOMAS PT LIGHT  2200   75 78  170/ 13/ 14   N/A
BALT KEY BRIDGE  2148   76     140/ 11/ 14 1020.1F
COVE POINT       2148   74     180/  9/ 13 1022.0F
LEWISETTA        2148   75 80  130/  8/ 11 1021.4F
SOLOMONS ISLAND  2148   77 79  200/  7/  9   N/A
PINEY POINT      2142          170/  8/ 11   N/A

$$





USA.gov is the U.S. government's official web portal to all federal, state and local government web resources and services.